Showing default

CENTISPACE-1 S16, 62585

Orbit data source: Space-Track

CENTISPACE-1 S16, 62585 is a payload satellite owned by Centispace (CN) in LEO that was launched on Mon, 13 Jan 2025 UTC via a JIELONG-3 launch vehicle from the Yellow Sea Launch Area, China (YSLA). Payload-class satellites include a variety of spacecraft equipped with specific instruments for various scientific and technological missions. These include communications satellites like Starlink; space stations such as the ISS; scientific satellites like the Hubble; Earth observation satellites from companies like Planet Labs, Umbra, and HawkEye 360; GPS; miniature CubeSats for education and research; and military/defense satellites.

Loading next visibility...
Identifier
62585, 2025-007L
Orbit
LEO
Last TLE update
9 hours ago
Origin
Manufacturer
HITSAT
Mission
Operational Commercial Nav/Com
Bus & Motor
WK01H, Unknown motor
Mass
140 kg wet, 140 kg dry
Launch date (UTC)
2025-01-13 (6 months ago)
Launch vehicle
JIELONG-3
Launch site
Yellow Sea Launch Area, China (YSLA)
Object type
Payload
Rocket body
Debris
Shape & HBR
Box + 2 Pan, 1.0 m
Radar Cross Section
0.833 m², Large (>1 m²)

Expand to show TLE details & history

TLE from 9 hours ago
0 CENTISPACE-1 S16
1 62585U 25007L   25199.59317790  .00000864  00000-0  18442-3 0  9997
2 62585  54.9817  90.5487 0011632  10.5756 349.5482 14.67822954 27464
Epoch: 2025-07-18T14:14Z
TLE epoch observation values (Epoch: 2025-07-18T14:14:10.57Z)
Latitude
-0.00008°
Longitude
-59.63781°
Altitude
661.031 km
Speed
7.532 km/s
True Right ascension
06h 02m 11s
True Declination
0° 00' 00"
Sunlit
Object was in daylight at epoch
Visualization orbit readout
Latitude
-38.69682°
Longitude
152.74951°
Altitude
687.31 km
Speed
7.509 km/s
Apparent Right ascension
22h 05m 09s
Apparent Declination
-43° 15' 43"
Sunlit
Object is in full shadow
Visualization observer readout
Local Sidereal Time
12:14:35
Azimuth
108.568° ESE
Elevation
-65.722°
Doppler factor
1
Orbital elements
Apogee altitude
676.189 km
Perigee altitude
659.797 km
Semi-major axis
7,046.13 km
Eccentricity
0.00116
Inclination
54.9817°
RAAN
90.5487°
Arg. of periapsis
10.5756°
True anomaly
349.52398°
Mean anomaly
349.5482°
Eccentric anomaly
349.5361°
Mean motion
3.66959 °/min
Orbital period
98.1 mins
BSTAR
0.00018442
Loading maneuver chart data...
Loading SW <> Apogee altitude chart data...
Loading historical data...
Loading historical data...
Loading historical data...
Loading historical data...
Loading historical data...
Loading historical data...
Loading historical data...
|